TimeMDT,TemperatureF,Dew PointF,Humidity,Sea Level PressureIn,VisibilityMPH,Wind Direction,Wind SpeedMPH,Gust SpeedMPH,PrecipitationIn,Events,Conditions,WindDirDegrees,DateUTC
12:53 AM,57.0,21.9,26,29.94,10.0,Calm,Calm,-,N/A,,Clear,0,2012-09-06 06:53:00
1:53 AM,54.0,21.9,29,29.94,10.0,Calm,Calm,-,N/A,,Clear,0,2012-09-06 07:53:00
2:53 AM,55.9,21.9,27,29.93,10.0,North,3.5,-,N/A,,Clear,10,2012-09-06 08:53:00
3:53 AM,53.1,21.9,30,29.94,10.0,NNE,3.5,-,N/A,,Clear,20,2012-09-06 09:53:00
4:53 AM,48.9,21.0,33,29.96,10.0,NNE,4.6,-,N/A,,Scattered Clouds,20,2012-09-06 10:53:00
5:53 AM,46.9,23.0,39,29.99,10.0,Calm,Calm,-,N/A,,Clear,0,2012-09-06 11:53:00
6:53 AM,46.0,24.1,42,30.01,10.0,Calm,Calm,-,N/A,,Clear,0,2012-09-06 12:53:00
7:53 AM,54.0,24.1,31,30.01,10.0,ENE,3.5,-,N/A,,Clear,60,2012-09-06 13:53:00
8:53 AM,59.0,28.0,31,30.02,10.0,Calm,Calm,-,N/A,,Clear,0,2012-09-06 14:53:00
9:53 AM,69.1,21.9,17,30.02,10.0,Calm,Calm,-,N/A,,Clear,0,2012-09-06 15:53:00
10:53 AM,73.0,23.0,15,30.00,10.0,Calm,Calm,-,N/A,,Partly Cloudy,0,2012-09-06 16:53:00
11:53 AM,75.9,24.1,15,30.00,10.0,NNE,3.5,-,N/A,,Overcast,20,2012-09-06 17:53:00
12:53 PM,80.1,21.0,11,29.98,10.0,Calm,Calm,-,N/A,,Mostly Cloudy,0,2012-09-06 18:53:00
1:53 PM,82.9,21.9,11,29.96,10.0,West,8.1,-,N/A,,Clear,270,2012-09-06 19:53:00
2:53 PM,84.9,21.0,10,29.91,10.0,East,6.9,-,N/A,,Partly Cloudy,80,2012-09-06 20:53:00
3:53 PM,86.0,23.0,10,29.89,10.0,SW,6.9,16.1,N/A,,Clear,220,2012-09-06 21:53:00
4:53 PM,84.9,23.0,10,29.90,10.0,SW,10.4,20.7,N/A,,Partly Cloudy,230,2012-09-06 22:53:00
5:53 PM,86.0,27.0,12,29.89,10.0,WSW,11.5,-,N/A,,Clear,240,2012-09-06 23:53:00
6:53 PM,82.9,28.0,14,29.90,10.0,West,10.4,-,N/A,,Clear,280,2012-09-07 00:53:00
7:53 PM,78.1,28.9,17,29.90,10.0,WNW,11.5,-,N/A,,Clear,300,2012-09-07 01:53:00
8:53 PM,75.0,30.9,20,29.91,10.0,NW,9.2,-,N/A,,Clear,310,2012-09-07 02:53:00
9:53 PM,69.1,30.9,24,29.91,10.0,Calm,Calm,-,N/A,,Clear,0,2012-09-07 03:53:00
10:53 PM,64.0,33.1,31,29.93,10.0,North,3.5,-,N/A,,Clear,350,2012-09-07 04:53:00
11:53 PM,61.0,33.1,35,29.93,10.0,Calm,Calm,-,N/A,,Clear,0,2012-09-07 05:53:00